Regional Weather Roundup
Issued by NWS

Home | Current Version | Previous Version | Text Only | Print | Product List | Glossary Off
Versions: 1 2 3 4 5 6 7 8 9 10 11 12 13 14 15 16 17 18 19 20 21 22 23 24 25 26 27 28 29 30 31 32 33 34 35 36 37 38 39 40 41 42 43 44 45 46 47 48 49 50

000
ASUS44 KMEG 242300
RWRTN
TENNESSEE HOURLY STATE WEATHER ROUNDUP
NATIONAL WEATHER SERVICE MEMPHIS TN
600 PM CDT MON JUL 24 2017

TNZ002-004-019-021-049-052-054-088>092-250000-
WEST TENNESSEE

CITY           SKY/WX    TMP DP  RH WIND       PRES   REMARKS
MEMPHIS INTL   MOSUNNY   91  74  57 W5        29.93S HX 100
NWS MEMPHIS      N/A     92 N/A N/A MISG        N/A
JACKSON        PTSUNNY   89  76  65 VRB5      29.94S HX 100
$$

TNZ008-025-027-028-033-062-065-066-250000-
NORTH MIDDLE TENNESSEE

CITY           SKY/WX    TMP DP  RH WIND       PRES   REMARKS
NASHVILLE      CLOUDY    90  72  55 E5        29.95R HX  97
CLARKSVILLE    CLOUDY    88  73  61 SW7       29.94R HX  95
SMYRNA         MOSUNNY   91  73  55 SE6       29.95S HX  99
CROSSVILLE     SUNNY     84  64  50 W3        30.05R
$$

TNZ061-075-076-078-094-096-097-250000-
SOUTH MIDDLE TENNESSEE

CITY           SKY/WX    TMP DP  RH WIND       PRES   REMARKS
$$

TNZ017-018-042-046-047-250000-
NORTHEAST TENNESSEE

CITY           SKY/WX    TMP DP  RH WIND       PRES   REMARKS
TRI CITIES     MOSUNNY   87  65  47 W7        29.99R
$$

TNZ012-013-036-069-073-074-250000-
CENTRAL EAST TENNESSEE

CITY           SKY/WX    TMP DP  RH WIND       PRES   REMARKS
KNOXVILLE      PTSUNNY   88  63  43 W5        29.97R
OAK RIDGE      SUNNY     90  66  45 W5        29.99R HX  92
GATLINBURG     SUNNY     88  66  48 NW6       29.97S HX  90
$$

TNZ083-085-099-250000-
SOUTHEAST TENNESSEE

CITY           SKY/WX    TMP DP  RH WIND       PRES   REMARKS
CHATTANOOGA    PTSUNNY   90  68  48 CALM      29.96R HX  94
$$

SKY/WX REPORTED AS FAIR MEANS FEW OR NO CLOUDS BELOW
12 THOUSAND FEET.





USA.gov is the U.S. government's official web portal to all federal, state and local government web resources and services.